Location: Cercedilla
(40.7379°N, 4.0638°W)
Time: 07:40:30
(UTC+00:00)

SL-4 R/B - Pass Details

Date: 07 June 2020
Orbit: 428 x 666 km, 51.6° (Epoch: 07 July)

Event Time Altitude Azimuth Distance (km) Brightness Sun altitude
Rises 02:46:12 0° 305° (NW) 3,003 5.8 -17.4°
Reaches altitude 10° 02:48:36 10° 304° (NW) 2,078 4.9 -17.2°
Maximum altitude 02:53:24 78° 219° (SW) 661 2.2 -16.6°
Drops below altitude 10° 02:57:58 10° 133° (SE) 1,976 4.8 -16.1°
Sets 03:00:12 0° 132° (SE) 2,843 5.6 -15.8°
